Dewpoint
23 24 22 21 23 22 28 23 20 16 13 12 12 13 13 12 12 12 12 12 11 11 12 13 16 15 16 16 26 48 57 58 58 59 58 58 59 60 60 60 60 60 60 61 61 62 62 63 63 65 65 65 66 66 66 66 65 65 65 64 64 65 65 65 65 65 65 65 65 65 65 64 65 64 65 65 65 65 65 65 64 64 64 64 64 65
25 24 23 25 25 26 28 31 29 23 21 13 14 14 15 13 14 12 13 13 12 18 11 23 17 17 18 22 20 33 53 55 57 58 58 58 58 59 60 60 60 60 61 61 62 63 63 62 64 65 66 65 64 65 65 65 65 65 64 64 64 64 65 65 65 65 65 65 64 64 64 64 64 63 63 64 65 65 65 65 65 65 64 65 65 66
25 23 27 24 28 34 33 30 28 25 22 18 16 16 15 14 14 14 15 15 14 15 13 19 16 15 19 21 23 23 45 53 56 57 57 58 57 58 59 60 60 60 60 61 61 63 62 63 64 64 65 65 65 65 65 66 65 64 63 64 63 64 65 66 66 65 65 66 66 65 65 64 63 64 65 64 65 65 64 65 65 65 65 64 65 66
24 21 23 23 30 30 28 28 26 27 25 20 18 17 15 14 13 12 20 20 19 17 18 17 16 19 25 29 26 24 33 50 55 57 58 58 58 57 58 59 59 59 60 60 61 62 62 62 63 64 64 64 64 64 65 65 64 64 63 63 63 64 65 65 65 65 66 65 66 66 66 66 65 64 65 65 65 65 65 64 65 65 66 65 65 65
22 19 23 26 27 24 26 28 25 22 18 26 22 15 13 13 12 11 14 22 24 24 29 19 21 20 26 22 21 25 26 38 51 56 57 57 58 59 59 60 60 59 59 60 61 62 62 62 62 63 64 64 64 64 64 65 64 64 63 63 63 63 63 64 65 65 64 65 65 65 65 65 65 65 64 64 63 64 64 64 65 65 66 66 65 65
24 23 24 21 21 21 24 22 23 22 18 20 27 19 15 15 14 14 20 15 15 15 26 19 14 16 26 23 21 21 27 24 35 51 54 55 57 58 58 59 59 60 60 60 60 61 62 62 63 63 64 63 63 64 64 65 65 64 62 62 62 63 63 64 65 65 65 64 64 63 63 63 62 62 61 62 61 62 63 62 64 64 65 65 65 65
22 26 23 21 22 20 18 18 22 22 17 18 15 22 17 15 17 15 16 15 11 13 23 27 18 15 24 19 24 34 39 34 32 42 49 54 56 56 57 58 58 59 59 60 60 61 61 62 63 63 63 63 63 63 64 64 65 65 63 62 63 63 63 63 64 65 65 64 64 64 63 63 62 61 61 63 64 63 62 64 64 64 65 64 64 65
19 21 22 24 24 20 19 19 22 19 16 12 24 21 18 16 17 19 15 12 11 25 29 24 18 17 17 20 28 40 44 39 34 35 45 52 54 55 56 57 57 57 59 59 59 61 61 62 62 62 63 63 63 63 64 64 65 64 64 63 63 63 63 63 64 65 65 64 64 64 64 64 63 62 62 64 64 65 64 64 64 64 64 65 65 65
29 23 25 22 22 18 18 19 24 18 14 13 24 18 16 15 18 17 14 17 19 21 16 22 22 18 16 21 30 43 36 39 38 37 42 49 54 55 55 56 57 57 58 59 59 60 62 62 62 63 62 62 63 63 63 63 64 64 64 64 63 63 63 63 64 64 65 65 65 65 64 63 63 63 63 62 63 63 63 64 63 63 62 63 64 64
18 22 20 20 19 18 18 16 20 18 15 16 21 21 20 19 19 16 17 16 22 20 16 20 22 14 13 23 25 43 40 38 40 43 44 47 52 55 55 56 57 57 59 59 60 61 62 62 63 63 62 62 62 62 63 63 64 64 63 63 63 62 63 62 64 65 65 65 64 64 64 64 63 62 62 62 62 62 63 63 63 63 62 61 62 63
20 32 21 17 18 19 18 17 19 17 15 22 19 17 17 18 22 23 24 21 21 16 17 21 23 16 11 15 22 33 35 42 43 45 47 49 51 54 55 56 57 57 59 60 61 61 62 62 62 61 61 61 61 62 63 63 63 63 63 63 63 63 63 63 64 64 63 63 64 64 64 64 63 63 62 61 62 61 62 62 62 62 61 61 61 62
18 17 15 14 22 14 15 13 17 18 16 16 16 15 16 18 19 19 19 22 16 13 19 16 19 18 11 15 24 36 38 40 44 45 45 48 50 53 55 56 57 58 60 60 60 61 60 60 60 60 60 60 61 61 62 62 62 62 62 62 62 62 62 62 62 63 62 63 63 64 64 63 63 62 61 61 61 60 61 62 61 61 60 60 60 61
21 17 17 17 37 13 13 12 13 16 16 14 16 14 13 14 19 13 14 13 12 13 19 19 17 15 14 18 27 37 44 47 48 48 48 47 50 53 54 57 58 59 60 60 60 59 59 59 60 60 60 60 60 61 61 62 61 61 62 61 62 61 61 61 61 62 62 62 63 63 63 63 63 62 62 61 61 60 60 60 60 59 58 59 59 60
20 21 18 17 15 21 14 14 14 13 14 14 13 17 15 11 11 8 10 14 14 17 19 18 21 13 19 22 43 46 48 49 51 51 51 50 50 54 55 58 59 60 60 59 59 59 59 60 60 60 59 60 60 60 60 59 59 60 61 61 61 60 60 62 61 61 62 63 62 63 63 63 62 62 62 61 60 61 60 61 60 59 58 58 59 60
17 16 16 16 17 19 15 15 14 17 16 13 15 12 17 14 10 11 10 10 11 11 20 24 17 14 14 28 42 48 50 51 51 51 51 51 52 57 57 59 60 60 59 59 59 59 59 60 60 60 60 59 59 59 59 60 60 60 61 61 61 60 60 60 60 60 61 61 61 62 62 62 62 61 61 60 61 61 60 60 61 60 60 58 59 59
16 18 16 17 15 16 15 16 17 16 16 15 15 14 18 17 24 10 18 17 15 13 15 20 17 26 24 39 45 50 50 50 52 53 54 54 56 58 58 58 59 59 58 58 59 60 60 60 61 61 59 58 58 59 60 60 60 61 61 61 61 59 58 58 59 59 59 60 59 60 61 62 62 61 61 60 60 60 61 61 60 60 61 60 59 60
15 18 19 19 17 14 14 17 15 13 15 18 12 14 15 20 18 23 22 25 23 17 13 26 29 30 35 37 47 48 48 49 51 54 54 56 57 57 56 57 58 58 58 57 58 58 59 60 60 60 58 58 59 59 60 60 61 61 61 61 59 58 58 58 58 58 59 58 59 59 60 61 61 61 60 60 60 60 61 61 61 60 60 60 60 60
17 19 20 15 12 15 16 16 14 14 16 14 15 15 21 19 23 21 12 18 15 12 15 28 30 32 26 30 44 45 47 47 49 50 50 51 52 51 52 53 54 53 52 53 56 59 59 60 60 59 59 59 59 59 60 60 61 61 61 60 58 58 59 59 58 59 59 57 57 58 59 60 60 60 61 60 60 60 59 60 60 60 58 59 59 59
19 17 20 18 16 16 23 14 13 16 20 14 15 17 14 16 15 20 19 12 12 12 12 24 28 29 30 30 41 43 45 47 47 48 47 48 50 51 52 52 53 54 53 54 57 57 59 59 60 59 59 60 60 60 60 61 61 61 61 60 59 59 59 60 60 60 59 58 58 59 59 60 59 60 60 60 60 59 59 59 59 59 59 59 58 57
25 20 22 21 16 18 22 16 18 14 15 18 18 15 22 21 25 14 16 22 18 9 16 19 25 19 31 38 43 44 45 47 46 47 47 49 50 51 51 52 53 54 54 55 57 57 58 59 60 60 60 59 59 59 60 61 60 60 60 60 60 60 60 60 60 59 58 58 58 58 58 59 58 58 59 59 59 59 59 58 58 58 59 59 57 58
24 27 17 19 18 18 17 26 22 18 16 15 18 19 19 28 23 21 26 16 16 16 14 16 15 25 37 41 43 44 46 48 47 47 48 49 49 50 51 54 54 55 55 56 57 58 58 59 59 60 60 60 60 59 60 60 59 59 59 59 59 59 59 60 60 59 58 57 57 57 58 59 59 60 59 59 59 59 60 59 58 58 59 57 57 57
25 22 22 26 19 19 19 25 28 26 21 15 18 18 17 21 18 13 14 22 21 17 17 17 14 27 35 44 46 45 48 49 49 49 50 49 50 51 52 53 54 55 55 56 57 58 58 60 59 59 60 60 59 59 59 59 60 60 60 59 59 59 59 60 59 58 58 58 58 58 59 59 59 59 59 60 59 59 58 58 58 58 57 58 57 56
34 30 27 20 20 20 24 27 28 31 29 30 22 18 23 28 26 15 9 20 22 20 22 24 19 26 43 46 46 47 50 49 50 50 50 50 51 51 52 53 54 55 55 56 56 57 58 59 58 58 59 59 59 59 59 59 59 59 60 60 59 59 59 60 60 59 58 58 58 58 59 58 58 59 60 59 59 59 57 58 58 57 58 57 56 56
50 32 26 21 24 25 27 27 27 29 29 30 33 34 28 23 26 25 20 26 21 27 20 20 18 26 42 47 47 49 51 50 50 50 50 51 52 53 53 53 53 53 53 53 54 54 56 57 57 58 58 57 57 58 59 59 59 59 60 60 60 60 60 60 59 58 57 58 58 59 59 58 59 59 59 59 59 59 59 58 57 56 57 56 55 54
27 32 27 23 22 23 26 26 24 25 31 33 33 35 33 30 27 30 30 31 21 27 24 18 14 29 44 48 48 49 50 50 49 50 50 51 51 51 49 49 49 49 49 50 50 51 53 54 55 56 56 55 55 56 58 58 59 59 59 59 59 60 59 60 59 58 58 58 59 59 59 59 59 59 59 59 59 59 58 58 57 56 55 56 55 55
31 32 27 20 18 17 19 20 21 25 31 31 33 34 35 32 32 30 19 22 15 26 25 21 20 37 43 46 46 48 49 47 47 46 46 46 46 46 46 46 46 47 47 48 48 49 50 53 54 55 55 55 55 56 57 57 58 58 58 59 59 58 59 59 59 58 58 58 58 58 59 59 59 59 59 59 59 58 58 57 56 56 56 54 54 55
36 36 31 28 23 20 22 22 27 30 32 32 32 34 35 35 35 31 28 21 16 25 25 29 36 40 41 43 45 45 44 44 44 44 44 44 44 44 44 45 45 45 45 46 47 48 49 50 52 55 55 55 54 56 57 57 57 57 57 58 58 58 58 59 59 59 59 59 59 58 59 58 59 59 59 59 58 57 55 55 55 54 53 54 54 54
36 31 35 36 34 31 31 30 32 32 32 33 34 36 35 36 36 33 23 21 32 26 19 36 40 39 41 42 42 43 43 43 43 42 42 42 42 43 43 43 44 44 45 45 45 46 47 48 50 53 54 54 55 55 55 56 56 56 56 57 57 57 58 59 58 57 57 58 57 57 58 58 59 58 58 57 56 55 55 54 54 54 54 53 54 54
36 31 34 35 33 32 33 32 32 32 32 33 33 35 36 36 38 36 34 33 35 23 22 36 40 39 37 38 40 41 42 41 41 40 40 40 40 41 41 41 42 43 43 43 44 44 45 45 47 49 50 52 54 54 54 55 55 56 56 56 56 57 57 57 58 57 57 57 57 57 58 58 58 58 57 56 56 56 56 56 56 55 54 53 54 55
36 34 36 36 33 34 34 33 32 31 31 33 33 34 35 38 37 37 37 39 39 38 39 39 37 35 37 38 38 40 40 39 40 40 39 39 39 39 39 39 40 41 42 42 42 42 42 43 44 45 45 47 48 50 50 51 51 52 54 55 56 56 57 58 57 56 56 56 56 56 57 58 58 57 57 56 56 56 57 57 58 58 57 56 55 55
33 31 37 36 34 32 35 35 32 31 32 32 33 34 34 36 37 37 37 37 39 39 38 37 35 34 37 38 38 39 39 39 38 37 38 39 39 39 39 39 39 40 40 40 40 41 41 41 41 41 42 43 45 46 47 48 48 48 49 51 52 53 55 55 56 56 55 55 55 57 56 57 57 57 57 56 55 56 57 57 57 58 59 57 56 57
37 31 35 32 29 30 34 35 35 33 32 32 33 33 34 34 34 36 35 36 37 37 38 38 36 33 36 38 39 38 38 38 37 37 37 37 38 38 39 39 39 40 40 39 39 39 39 40 40 40 41 41 42 44 44 44 45 46 47 48 48 50 50 51 50 50 52 54 56 56 57 57 56 56 56 56 56 57 57 58 58 58 58 58 56 55
39 35 31 30 29 28 33 36 35 35 34 29 30 32 33 34 35 36 35 36 36 36 36 35 35 35 37 38 36 36 37 37 37 38 38 37 38 38 38 39 39 40 38 39 38 38 38 39 40 41 42 41 42 42 44 45 44 44 45 45 45 43 43 45 47 47 46 46 47 50 52 52 52 53 54 55 55 55 56 55 55 55 56 55 56 56
37 36 33 38 27 29 33 34 35 30 25 26 33 36 35 34 35 34 34 35 35 37 36 35 35 36 35 36 35 34 35 36 37 38 40 39 38 38 39 39 39 39 40 39 39 38 38 39 39 38 40 41 43 44 44 44 44 44 45 43 41 39 39 40 41 42 42 42 43 44 45 47 45 46 46 46 47 48 48 49 50 51 52 53 53 52
35 36 33 37 30 29 32 33 29 25 26 33 37 36 36 36 35 34 34 34 35 35 35 34 34 34 34 34 35 34 34 36 38 38 38 39 39 38 38 38 39 39 39 39 39 39 39 41 41 38 37 37 37 39 41 41 41 42 39 39 38 38 38 38 39 40 41 41 41 41 41 41 42 43 44 43 42 43 43 44 45 46 48 49 49 49
32 32 31 31 31 31 30 28 24 24 32 35 36 36 36 36 35 35 34 34 34 34 34 33 34 34 34 35 35 36 36 36 37 38 38 39 39 38 38 38 38 39 38 38 39 39 40 40 40 40 39 40 37 36 37 39 40 37 38 39 39 38 38 38 38 39 39 39 39 39 40 42 41 40 41 43 42 41 42 43 44 44 46 47 47 47
36 34 32 29 30 27 28 27 28 33 33 32 32 33 33 30 31 31 30 33 35 34 34 33 34 35 35 36 36 36 37 36 34 35 38 38 39 39 39 39 39 39 39 39 39 39 40 41 41 41 41 41 40 37 36 36 36 36 36 36 36 36 37 38 37 38 39 39 39 39 40 40 40 41 42 40 40 41 42 42 42 42 43 43 43 45
34 31 33 30 27 28 28 27 28 26 26 28 32 35 36 36 35 35 33 32 36 36 35 34 33 34 35 36 37 37 37 34 31 32 37 38 39 38 39 39 40 40 40 40 40 40 40 40 40 42 40 39 39 40 39 38 37 36 36 36 35 35 35 36 36 37 37 38 38 38 38 38 38 38 39 38 38 40 42 43 44 44 46 45 44 46
31 33 36 27 26 28 27 25 24 23 26 31 32 34 35 36 35 36 33 31 36 36 36 36 35 35 36 36 37 38 38 32 30 33 37 38 38 39 39 39 40 40 40 40 40 39 40 40 38 37 40 40 37 39 40 40 39 37 36 36 36 36 36 36 36 36 36 37 37 38 38 38 38 37 37 38 39 40 39 40 40 40 41 42 42 42
30 29 29 27 27 25 24 25 25 28 26 31 32 34 35 35 37 35 26 28 35 36 37 37 36 35 37 38 38 38 35 30 30 34 38 39 39 40 39 38 39 39 40 41 40 40 40 40 37 37 38 38 37 37 37 38 39 39 38 37 37 36 35 36 36 36 36 37 37 37 37 38 39 39 38 37 38 38 38 38 38 39 39 40 40 40
26 26 26 24 24 25 26 26 27 29 32 33 32 33 34 36 35 27 24 30 36 36 37 37 37 38 39 39 39 35 37 37 36 38 39 39 38 39 40 40 40 40 40 40 40 40 40 39 39 38 37 37 37 37 37 37 37 39 40 39 37 37 37 36 36 36 37 37 36 37 37 37 38 38 38 39 39 39 39 38 38 39 39 39 38 38
25 24 25 27 25 22 23 25 25 27 32 33 33 34 36 35 29 27 35 37 37 36 36 36 37 38 39 38 37 37 36 37 38 39 39 38 39 39 39 40 40 40 41 40 40 40 40 39 39 39 39 37 35 36 37 37 37 37 37 37 37 37 36 36 36 37 37 37 37 37 37 37 38 39 39 38 38 38 39 39 39 39 38 37 38 38
25 23 23 23 25 22 23 22 22 21 30 34 34 34 35 31 31 35 35 35 37 39 38 37 37 37 37 37 36 36 35 36 37 38 38 39 39 39 39 38 38 38 37 37 38 39 40 38 37 37 37 37 36 36 37 39 37 37 37 37 38 39 38 37 37 37 37 37 37 38 38 38 38 39 39 39 39 38 38 38 38 39 39 39 39 39
29 23 23 24 27 23 23 24 24 29 30 33 34 30 33 34 36 37 37 36 38 39 36 37 35 36 36 37 37 37 36 37 38 38 38 39 38 38 38 38 38 37 35 34 33 34 36 36 37 36 36 36 36 36 36 36 37 37 37 36 37 38 38 38 38 37 37 37 37 37 37 37 37 38 38 39 38 38 38 38 38 37 38 37 37 37
30 29 26 26 29 27 26 28 30 30 30 31 34 35 36 36 39 39 39 39 39 39 40 36 36 37 39 38 38 37 36 35 35 36 35 35 36 36 35 33 34 34 34 34 34 35 34 33 34 35 36 36 37 36 35 35 35 35 35 36 37 36 37 37 37 37 37 37 36 36 35 37 37 37 37 37 37 36 36 37 37 36 37 37 36 36
31 32 32 30 28 30 30 31 31 29 30 31 33 34 35 37 39 40 39 37 38 39 40 39 38 37 38 37 35 35 34 32 33 34 34 33 33 33 33 33 33 34 33 33 33 34 34 34 34 34 33 34 35 36 37 37 36 35 36 36 37 37 37 37 37 37 36 36 36 35 34 34 35 35 36 37 36 36 35 36 35 34 36 35 36 36
29 31 30 28 29 26 25 30 29 30 31 32 32 34 35 37 38 40 39 39 38 39 39 39 38 37 37 37 36 33 32 32 32 33 33 33 32 33 33 33 34 33 33 33 34 34 34 34 33 33 34 34 35 35 35 37 37 37 37 36 36 36 37 37 37 37 37 36 35 36 36 36 35 35 36 36 35 35 36 35 35 35 34 35 34 35
24 30 28 28 29 27 27 29 30 31 32 32 32 32 33 34 36 38 39 39 39 39 38 38 38 37 38 37 38 33 32 32 32 32 32 32 32 32 32 33 33 34 35 35 35 35 35 34 33 34 34 34 35 36 36 35 35 35 36 36 35 36 37 37 37 36 36 36 36 35 35 35 33 35 35 36 35 34 35 34 35 34 34 33 34 34
27 31 25 28 28 28 28 29 30 30 31 32 32 33 33 34 34 35 37 37 37 36 36 38 38 38 38 38 38 37 35 32 32 32 31 31 32 32 32 33 34 34 35 34 35 36 35 35 34 35 35 35 35 36 36 36 36 36 37 36 36 37 37 37 37 37 37 37 35 35 35 35 35 35 36 36 36 35 35 36 36 34 35 37 35 35
28 26 28 26 23 23 26 28 30 26 28 31 33 35 34 34 34 35 36 36 38 37 37 37 37 38 39 39 39 38 37 33 32 33 31 32 32 33 33 33 34 34 34 35 36 35 36 37 36 36 35 35 36 36 36 36 36 37 36 36 36 37 37 37 37 37 37 36 35 35 35 36 35 36 35 36 36 36 37 34 34 35 35 36 35 35
29 29 29 25 23 23 28 29 31 31 32 32 32 32 33 35 36 35 35 36 37 37 38 37 36 36 37 37 38 39 37 35 33 32 32 31 33 34 34 34 33 34 34 35 34 34 35 37 37 37 35 35 36 35 36 36 36 36 36 36 36 37 36 36 36 36 35 35 35 35 36 36 36 36 36 36 36 37 36 37 37 34 34 35 35 35